TimeAEDT,TemperatureF,Dew PointF,Humidity,Sea Level PressureIn,VisibilityMPH,Wind Direction,Wind SpeedMPH,Gust SpeedMPH,PrecipitationIn,Events,Conditions,WindDirDegrees,DateUTC
12:00 AM,71,67,84,30.12,,SSE,8.1,,,,,160,2014-01-12 13:00:00
12:00 AM,71.6,68.0,88,30.12,-9999.0,SSE,8.1,-,N/A,,Mostly Cloudy,160,2014-01-12 13:00:00
12:30 AM,69.8,68.0,94,30.09,-9999.0,SE,10.4,-,N/A,,Scattered Clouds,140,2014-01-12 13:30:00
1:00 AM,71.6,68.0,88,30.09,-9999.0,SE,9.2,-,N/A,,Mostly Cloudy,140,2014-01-12 14:00:00
1:10 AM,71.6,68.0,88,30.09,-9999.0,SE,9.2,-,N/A,,Mostly Cloudy,140,2014-01-12 14:10:00
1:30 AM,71.6,66.2,83,30.09,-9999.0,SE,10.4,-,N/A,,Overcast,140,2014-01-12 14:30:00
1:54 AM,71.6,66.2,83,30.09,-9999.0,SSE,9.2,-,N/A,,Overcast,150,2014-01-12 14:54:00
2:00 AM,71,67,82,30.11,,SSE,9.2,,,,,150,2014-01-12 15:00:00
2:00 AM,71.6,66.2,83,30.09,-9999.0,SSE,9.2,-,N/A,,Overcast,150,2014-01-12 15:00:00
2:30 AM,71.6,66.2,83,30.09,-9999.0,SSE,11.5,-,N/A,,Overcast,150,2014-01-12 15:30:00
3:00 AM,71,65,77,30.10,,SE,11.5,,,,Overcast,140,2014-01-12 16:00:00
3:00 AM,71.6,66.2,83,30.09,-9999.0,SE,11.5,-,N/A,,Overcast,140,2014-01-12 16:00:00
3:30 AM,71.6,64.4,78,30.09,6.2,SSE,12.7,-,N/A,,Overcast,150,2014-01-12 16:30:00
4:00 AM,69.8,64.4,83,30.09,6.2,SSE,12.7,-,N/A,,Overcast,160,2014-01-12 17:00:00
4:30 AM,69.8,64.4,83,30.09,6.2,SSE,11.5,-,N/A,,Overcast,160,2014-01-12 17:30:00
5:00 AM,70,63,73,30.11,,SSE,10.4,,,,,150,2014-01-12 18:00:00
5:00 AM,69.8,62.6,78,30.09,6.2,SSE,10.4,-,N/A,,Overcast,150,2014-01-12 18:00:00
5:30 AM,69.8,64.4,83,30.09,6.2,SSE,8.1,-,N/A,,Overcast,150,2014-01-12 18:30:00
6:00 AM,70,63,72,30.13,9,South,9.2,,,,Mostly Cloudy,170,2014-01-12 19:00:00
6:00 AM,69.8,62.6,78,30.12,6.2,South,9.2,-,N/A,,Mostly Cloudy,170,2014-01-12 19:00:00
6:30 AM,69.8,62.6,78,30.12,6.2,South,8.1,-,N/A,,Mostly Cloudy,170,2014-01-12 19:30:00
7:00 AM,69.8,62.6,78,30.12,6.2,South,9.2,-,N/A,,Mostly Cloudy,170,2014-01-12 20:00:00
7:30 AM,71.6,62.6,73,30.12,6.2,South,11.5,-,N/A,,Mostly Cloudy,170,2014-01-12 20:30:00
8:00 AM,73,61,58,30.16,,SSE,13.8,,,,,160,2014-01-12 21:00:00
8:00 AM,73.4,60.8,65,30.15,6.2,SSE,13.8,-,N/A,,Scattered Clouds,160,2014-01-12 21:00:00
8:30 AM,75.2,59.0,57,30.15,6.2,South,12.7,-,N/A,,Partly Cloudy,170,2014-01-12 21:30:00
9:00 AM,75,60,50,30.17,9,South,15.0,,,,Partly Cloudy,170,2014-01-12 22:00:00
9:00 AM,75.2,60.8,61,30.15,6.2,South,15.0,-,N/A,,Partly Cloudy,170,2014-01-12 22:00:00
9:30 AM,75.2,59.0,57,30.15,6.2,South,13.8,-,N/A,,Scattered Clouds,180,2014-01-12 22:30:00
10:00 AM,75.2,60.8,61,30.15,6.2,SSE,11.5,-,N/A,,Scattered Clouds,150,2014-01-12 23:00:00
10:30 AM,75.2,57.2,53,30.15,6.2,South,11.5,-,N/A,,Scattered Clouds,170,2014-01-12 23:30:00
11:00 AM,77,60,45,30.17,,SSE,12.7,,,,,160,2014-01-13 00:00:00
11:00 AM,77.0,59.0,54,30.15,6.2,SSE,12.7,-,N/A,,Scattered Clouds,160,2014-01-13 00:00:00
11:30 AM,75.2,57.2,53,30.15,6.2,SSE,12.7,-,N/A,,Scattered Clouds,160,2014-01-13 00:30:00
12:00 PM,78,57,39,30.17,16,SSE,15.0,,,,Haze,160,2014-01-13 01:00:00
12:00 PM,77.0,57.2,50,30.15,6.2,SSE,15.0,-,N/A,,Scattered Clouds,160,2014-01-13 01:00:00
12:30 PM,77.0,55.4,47,30.15,6.2,SSE,16.1,-,N/A,,Partly Cloudy,160,2014-01-13 01:30:00
1:00 PM,77.0,57.2,50,30.12,6.2,SSE,16.1,-,N/A,,Partly Cloudy,160,2014-01-13 02:00:00
1:30 PM,77.0,57.2,50,30.12,6.2,SSE,15.0,-,N/A,,Partly Cloudy,160,2014-01-13 02:30:00
2:00 PM,76,57,42,30.14,,SE,12.7,,,,,130,2014-01-13 03:00:00
2:00 PM,75.2,57.2,53,30.12,6.2,SE,12.7,-,N/A,,Partly Cloudy,130,2014-01-13 03:00:00
2:30 PM,77.0,59.0,54,30.12,6.2,SE,15.0,-,N/A,,Partly Cloudy,130,2014-01-13 03:30:00
3:00 PM,77,59,44,30.12,16,ESE,15.0,,,,Haze,110,2014-01-13 04:00:00
3:00 PM,77.0,59.0,54,30.09,6.2,ESE,15.0,-,N/A,,Partly Cloudy,110,2014-01-13 04:00:00
3:30 PM,77.0,59.0,54,30.09,6.2,SE,15.0,-,N/A,,Partly Cloudy,130,2014-01-13 04:30:00
4:00 PM,75.2,59.0,57,30.09,6.2,ESE,16.1,-,N/A,,Partly Cloudy,120,2014-01-13 05:00:00
4:30 PM,75.2,60.8,61,30.09,6.2,SE,16.1,-,N/A,,Partly Cloudy,130,2014-01-13 05:30:00
5:00 PM,74,60,53,30.10,,SE,17.3,,,,,130,2014-01-13 06:00:00
5:00 PM,75.2,60.8,61,30.09,6.2,SE,17.3,-,N/A,,Partly Cloudy,130,2014-01-13 06:00:00
5:30 PM,75.2,60.8,61,30.09,6.2,ESE,16.1,-,N/A,,Partly Cloudy,120,2014-01-13 06:30:00
6:00 PM,74,60,52,30.10,,East,18.4,,,,,90,2014-01-13 07:00:00
6:00 PM,75.2,60.8,61,30.09,6.2,East,18.4,-,N/A,,Partly Cloudy,90,2014-01-13 07:00:00
6:30 PM,73.4,59.0,61,30.09,6.2,ESE,16.1,-,N/A,,Partly Cloudy,110,2014-01-13 07:30:00
7:00 PM,73.4,59.0,61,30.09,6.2,East,15.0,-,N/A,,Partly Cloudy,100,2014-01-13 08:00:00
7:30 PM,71.6,59.0,64,30.12,6.2,East,11.5,-,N/A,,Partly Cloudy,100,2014-01-13 08:30:00
8:00 PM,70,60,64,30.13,,ESE,9.2,,,,,110,2014-01-13 09:00:00
8:00 PM,69.8,60.8,73,30.12,6.2,ESE,9.2,-,N/A,,Partly Cloudy,110,2014-01-13 09:00:00
8:30 PM,69.8,60.8,73,30.12,6.2,East,8.1,-,N/A,,Partly Cloudy,100,2014-01-13 09:30:00
9:00 PM,69,61,68,30.14,,East,8.1,,,,,100,2014-01-13 10:00:00
9:00 PM,69.8,60.8,73,30.12,6.2,East,8.1,-,N/A,,Partly Cloudy,100,2014-01-13 10:00:00
9:30 PM,68.0,60.8,78,30.12,6.2,East,6.9,-,N/A,,Partly Cloudy,100,2014-01-13 10:30:00
10:00 PM,68.0,60.8,78,30.15,6.2,ESE,5.8,-,N/A,,Partly Cloudy,110,2014-01-13 11:00:00
10:30 PM,68.0,60.8,78,30.15,6.2,East,5.8,-,N/A,,Partly Cloudy,90,2014-01-13 11:30:00
11:00 PM,67,61,75,30.15,,East,4.6,,,,,100,2014-01-13 12:00:00
11:00 PM,68.0,60.8,78,30.15,6.2,East,4.6,-,N/A,,Unknown,100,2014-01-13 12:00:00
11:30 PM,66.2,60.8,83,30.15,6.2,East,5.8,-,N/A,,Unknown,100,2014-01-13 12:30:00